Location: *
(51.4660°N, 0.3360°W)
Time: 21:57:15
(UTC+00:00)

SL-14 R/B - Pass Details

Date: 19 September 2019
Orbit: 517 x 556 km, 82.4° (Epoch: 20 October)

Event Time Altitude Azimuth Distance (km) Brightness Sun altitude
Rises 20:08:11 0° 355° (N) 2,731 7.3 -18.9°
Reaches altitude 10° 20:10:31 10° 5° (N) 1,826 6.3 -19.2°
Enters shadow 20:13:49 34° 58° (ENE) 917 4.2 -19.6°
